MIDAS 4 DEB, 27478

Orbit data source: Space-Track

MIDAS 4 DEB, 27478 is space debris in LEO originally from a launch on Sat, 21 Oct 1961 UTC launched from the Air Force Western Test Range (AFWTR). Debris objects in space refer to the collection of defunct objects orbiting the Earth. Examples of debris include non-operational satellites, rocket bodies, and fragments generated from explosions, collisions, or faulty payload assembly.

Loading next visibility...
Identifier
27478, 1961-028H
Orbit
LEO
Country
Flag of USUS
Related business
Manufacturer
Unknown
Mission
Spacecraft
Bus & Motor
Unknown
Mass
Unknown
Launch date (UTC)
1961-10-21 (64 years ago)
Launch vehicle
Unknown
Launch site
Air Force Western Test Range (AFWTR)
Object type
Payload
Rocket body
Debris
Shape & HBR
Unknown shape, 1.1 m
Radar Cross Section
Medium (>0.1 m² and <1 m²)

Expand to show TLE details & history
Last TLE update: 6 days ago

TLE from 6 days ago
0 MIDAS 4 DEB
1 27478U 61028H   26030.90422844 -.00000004  00000-0 -41750-3 0  9995
2 27478  95.8368 189.3701 0269589 104.2584  53.1050  8.66669170578891
Epoch: 2026-01-30T21:42Z
TLE epoch observation values (Epoch: 2026-01-30T21:42:05.337Z)
Latitude
20.00859°
Longitude
-84.16328°
Altitude
3,477.928 km
Speed
6.411 km/s
True Right ascension
00h 45m 58s
True Declination
19° 55' 43"
Sunlit
Object was in daylight at epoch
Visualization orbit readout
Latitude
Unknown
Longitude
Unknown
Altitude
Unknown
Speed
Unknown
Apparent Right ascension
Unknown
Apparent Declination
Unknown
Sunlit
N/A
Visualization observer readout
Local Sidereal Time
06:39:27
Azimuth
Unknown
Elevation
Unknown
Doppler factor
Unknown
Orbital elements
Apogee altitude
3,901.088 km
Perigee altitude
3,361.404 km
Semi-major axis
10,009.383 km
Eccentricity
0.02696
Inclination
95.8368°
RAAN
189.3701°
Arg. of periapsis
104.2584°
True anomaly
55.62575°
Mean anomaly
53.105°
Eccentric anomaly
54.36032°
Mean motion
2.16737 °/min
Orbital period
166.1 mins
BSTAR
-0.0004175
Loading maneuver chart data...
Computing Atmospheric mass density...
Loading historical data...
Loading historical data...
Loading historical data...
Loading historical data...
Loading historical data...
Loading historical data...
Loading historical data...

Documentation

Showing up to 5 results
|